Weather History for Pittsburgh Allegheny Co., PA

Change the Weather History Date:

Saturday, October 19, 2013

  Actual Average Record
Temperature  
Mean Temperature 46 °F -  
Max Temperature 53 °F 58 °F 75 °F (2005)
Min Temperature 39 °F 38 °F 31 °F (1992)
Degree Days  
Heating Degree Days 19    
Moisture  
Dew Point 41 °F    
Average Humidity 86    
Maximum Humidity 100    
Minimum Humidity 69    
Precipitation  
Precipitation 0.07 in - - ()
Sea Level Pressure  
Sea Level Pressure 29.88 in    
Wind  
Wind Speed 8 mph (SSW)    
Max Wind Speed 15 mph    
Max Gust Speed 25 mph    
Visibility 9 miles    
Events Fog , Rain    
Averages and records for this station are not official NWS values.
T = Trace of Precipitation, MM = Missing Value Source: NWS Daily Summary

Daily Weather History Graph

Daily Weather History Graph

Search for Another Location

Airport:

Trip Planner

Search our weather history database for the weather conditions in past years. The results will help you decide how hot, cold, wet, or windy it might be!

Date:

Astronomy

Oct. 19, 2013 Rise Set
Actual Time 7:35 AM EDT 6:33 PM EDT
Civil Twilight 7:07 AM EDT 7:01 PM EDT
Nautical Twilight 6:35 AM EDT 7:32 PM EDT
Astronomical Twilight 6:04 AM EDT 8:04 PM EDT
Moon 7:00 PM EDT 8:11 AM EDT
Length of Visible Light 11h 53m
Length of Day
10h 58m
Waxing Gibbous, 99% of the Moon is Illuminated
Oct 19
Waxing Gibbous
Oct 26
Last Quarter
Nov 3
New
Nov 10
First Quarter
Nov 17
Full

Hourly Weather History & Observations

Time (EDT) Temp. Windchill Dew Point Humidity Pressure Visibility Wind Dir Wind Speed Gust Speed Precip Events Conditions
12:53 AM 46.0 °F 42.5 °F 39.0 °F 76% 29.98 in 10.0 mi South 6.9 mph - N/A   Clear
1:53 AM 44.1 °F 40.1 °F 39.0 °F 82% 29.97 in 10.0 mi SSE 6.9 mph - N/A   Clear
2:53 AM 45.0 °F 41.2 °F 39.9 °F 82% 29.96 in 10.0 mi SSE 6.9 mph - N/A   Clear
3:53 AM 44.1 °F 39.5 °F 39.9 °F 85% 29.95 in 10.0 mi South 8.1 mph - N/A   Clear
4:53 AM 43.0 °F 38.8 °F 39.9 °F 89% 29.94 in 9.0 mi South 6.9 mph - N/A   Clear
5:53 AM 43.0 °F 38.2 °F 39.9 °F 89% 29.94 in 10.0 mi South 8.1 mph - N/A   Clear
6:53 AM 41.0 °F 35.8 °F 39.0 °F 93% 29.93 in 7.0 mi South 8.1 mph - N/A   Clear
7:46 AM 39.2 °F 35.0 °F 37.4 °F 93% 29.88 in 1.8 mi SSE 5.8 mph - N/A   Clear
7:53 AM 39.0 °F 34.8 °F 37.9 °F 96% 29.91 in 0.5 mi SSE 5.8 mph - N/A Fog Fog
8:01 AM 39.2 °F 34.2 °F 39.2 °F 100% 29.88 in 0.2 mi SSE 6.9 mph - N/A Fog Fog
8:16 AM 39.2 °F 34.2 °F 39.2 °F 100% 29.88 in 10.0 mi SSE 6.9 mph - N/A   Clear
8:53 AM 44.1 °F 40.8 °F 41.0 °F 89% 29.91 in 10.0 mi SSE 5.8 mph - N/A   Clear
9:53 AM 46.9 °F - 42.1 °F 83% 29.88 in 6.0 mi SSE 5.8 mph - N/A   Haze
10:53 AM 48.9 °F - 43.0 °F 80% 29.86 in 10.0 mi South 6.9 mph - N/A   Overcast
11:53 AM 50.0 °F - 43.0 °F 77% 29.86 in 10.0 mi South 6.9 mph - N/A   Overcast
12:53 PM 51.1 °F - 43.0 °F 74% 29.83 in 10.0 mi South 5.8 mph - N/A   Overcast
1:53 PM 53.1 °F - 43.0 °F 69% 29.80 in 10.0 mi South 8.1 mph - N/A   Overcast
2:53 PM 52.0 °F - 45.0 °F 77% 29.78 in 10.0 mi South 6.9 mph - 0.01 in Rain Light Rain
3:53 PM 52.0 °F - 46.0 °F 80% 29.78 in 10.0 mi South 6.9 mph - 0.00 in   Overcast
4:53 PM 52.0 °F - 45.0 °F 77% 29.78 in 10.0 mi SSW 13.8 mph 23.0 mph 0.00 in Rain Light Rain
5:49 PM 50.0 °F - 46.4 °F 87% 29.77 in 10.0 mi SSW 13.8 mph - 0.01 in Rain Light Rain
5:53 PM 50.0 °F - 46.0 °F 86% 29.79 in 10.0 mi SSW 12.7 mph - 0.01 in   Overcast
6:29 PM 48.2 °F - 46.4 °F 93% 29.80 in 4.0 mi WNW 11.5 mph 21.9 mph 0.04 in Rain Light Rain
6:36 PM 46.4 °F 40.1 °F 44.6 °F 93% 29.80 in 10.0 mi WNW 15.0 mph 25.3 mph 0.04 in   Overcast
6:44 PM 46.4 °F 40.1 °F 44.6 °F 93% 29.81 in 10.0 mi West 15.0 mph 25.3 mph 0.04 in Rain Light Rain
6:53 PM 46.0 °F 39.9 °F 43.0 °F 89% 29.85 in 10.0 mi West 13.8 mph 25.3 mph 0.05 in Rain Light Rain
7:34 PM 44.6 °F 40.2 °F 42.8 °F 93% 29.85 in 10.0 mi West 8.1 mph 16.1 mph 0.00 in   Overcast
7:53 PM 44.1 °F 37.4 °F 41.0 °F 89% 29.89 in 10.0 mi West 13.8 mph 21.9 mph 0.00 in   Overcast
8:36 PM 44.6 °F 39.2 °F 39.2 °F 81% 29.88 in 10.0 mi West 10.4 mph 24.2 mph N/A   Overcast
8:53 PM 44.1 °F 37.7 °F 37.9 °F 79% 29.92 in 10.0 mi West 12.7 mph 23.0 mph N/A   Overcast
9:53 PM 43.0 °F 37.7 °F 37.0 °F 80% 29.94 in 10.0 mi WSW 9.2 mph - N/A   Partly Cloudy
10:53 PM 42.1 °F 37.1 °F 37.9 °F 85% 29.96 in 10.0 mi SW 8.1 mph - N/A   Clear
11:53 PM 41.0 °F 34.7 °F 37.9 °F 89% 29.97 in 10.0 mi SW 10.4 mph - N/A   Clear